| time (UTC) | temp C | wind direction | speed KPH | gust KPH | rain 1hr cm | rain 24hr cm | rain mn cm | humidity % | barometer mb |
| 20260509015019 | 18 | 0 | 0.0 | 0.0 | 0.00 | 0.25 | 0.23 | 65 | 1015.8 |
| 20260509014537 | 18 | 0 | 0.0 | 0.0 | 0.00 | 0.25 | 0.23 | 65 | 1015.8 |
| 20260509014022 | 18 | 0 | 0.0 | 0.0 | 0.00 | 0.25 | 0.23 | 64 | 1015.6 |
| 20260509013522 | 18 | 0 | 0.0 | 0.0 | 0.00 | 0.25 | 0.23 | 64 | 1015.6 |
| 20260509013035 | 18 | 0 | 0.0 | 0.0 | 0.00 | 0.25 | 0.23 | 64 | 1015.6 |
| 20260509012520 | 18 | 0 | 0.0 | 0.0 | 0.00 | 0.25 | 0.23 | 64 | 1015.5 |
| 20260509012021 | 18 | 0 | 0.0 | 0.0 | 0.03 | 0.25 | 0.23 | 63 | 1015.4 |
| 20260509011534 | 18 | 0 | 0.0 | 0.0 | 0.03 | 0.25 | 0.23 | 63 | 1015.3 |
| 20260509011020 | 18 | 0 | 0.0 | 0.0 | 0.03 | 0.25 | 0.23 | 63 | 1015.3 |
| 20260509010520 | 18 | 0 | 0.0 | 0.0 | 0.03 | 0.25 | 0.23 | 62 | 1015.4 |
| 20260509010036 | 18 | 0 | 0.0 | 0.0 | 0.03 | 0.25 | 0.23 | 62 | 1015.3 |
| 20260509005523 | 18 | 0 | 0.0 | 0.0 | 0.03 | 0.25 | 0.23 | 61 | 1015.5 |
| 20260509005019 | 19 | 0 | 0.0 | 0.0 | 0.03 | 0.25 | 0.23 | 61 | 1015.4 |
| 20260509004537 | 19 | 0 | 0.0 | 0.0 | 0.03 | 0.25 | 0.23 | 61 | 1015.5 |
| 20260509004020 | 19 | 0 | 0.0 | 0.0 | 0.03 | 0.25 | 0.23 | 60 | 1015.4 |
| 20260509003519 | 19 | 0 | 0.0 | 0.0 | 0.03 | 0.25 | 0.23 | 60 | 1015.3 |
| 20260509003037 | 19 | 0 | 0.0 | 0.0 | 0.03 | 0.25 | 0.23 | 59 | 1015.2 |
| 20260509002522 | 20 | 0 | 0.0 | 0.0 | 0.03 | 0.25 | 0.23 | 58 | 1015.0 |
| 20260509002019 | 20 | 0 | 0.0 | 0.0 | 0.00 | 0.23 | 0.20 | 57 | 1014.9 |
| 20260509001537 | 20 | 0 | 0.0 | 0.0 | 0.00 | 0.23 | 0.20 | 57 | 1014.9 |
| 20260509001018 | 20 | 0 | 0.0 | 0.0 | 0.00 | 0.23 | 0.20 | 57 | 1014.9 |
| 20260509000519 | 20 | 0 | 0.0 | 0.0 | 0.00 | 0.23 | 0.20 | 56 | 1014.8 |
| 20260509000035 | 20 | 0 | 0.0 | 0.0 | 0.00 | 0.23 | 0.20 | 56 | 1014.9 |
| 20260508235521 | 20 | 0 | 0.0 | 0.0 | 0.00 | 0.25 | 0.20 | 56 | 1014.7 |
| 20260508235023 | 20 | 0 | 0.0 | 0.0 | 0.00 | 0.25 | 0.20 | 55 | 1014.9 |
| 20260508234532 | 20 | 0 | 0.0 | 0.0 | 0.00 | 0.25 | 0.20 | 56 | 1014.7 |
| 20260508234022 | 20 | 0 | 0.0 | 0.0 | 0.00 | 0.25 | 0.20 | 55 | 1014.7 |
| 20260508233523 | 21 | 0 | 0.0 | 0.0 | 0.00 | 0.25 | 0.20 | 55 | 1014.8 |
| 20260508233039 | 21 | 0 | 0.0 | 0.0 | 0.00 | 0.25 | 0.20 | 55 | 1014.7 |
| 20260508232521 | 21 | 0 | 0.0 | 0.0 | 0.00 | 0.25 | 0.20 | 55 | 1014.6 |
| 20260508232020 | 21 | 0 | 0.0 | 3.2 | 0.00 | 0.25 | 0.20 | 54 | 1014.7 |
| 20260508231537 | 21 | 0 | 0.0 | 3.2 | 0.00 | 0.25 | 0.20 | 54 | 1014.9 |
| 20260508231020 | 21 | 0 | 0.0 | 0.0 | 0.00 | 0.25 | 0.20 | 54 | 1014.8 |
| 20260508230520 | 21 | 0 | 0.0 | 1.6 | 0.00 | 0.25 | 0.20 | 54 | 1014.8 |
| 20260508230036 | 21 | 0 | 0.0 | 1.6 | 0.00 | 0.25 | 0.20 | 52 | 1014.9 |
| 20260508225525 | 21 | 0 | 0.0 | 0.0 | 0.00 | 0.28 | 0.20 | 53 | 1014.7 |
| 20260508225022 | 21 | 0 | 0.0 | 0.0 | 0.00 | 0.28 | 0.20 | 53 | 1014.7 |
| 20260508224547 | 21 | 0 | 0.0 | 0.0 | 0.00 | 0.28 | 0.20 | 53 | 1014.9 |
| 20260508224023 | 21 | 0 | 0.0 | 0.0 | 0.00 | 0.28 | 0.20 | 53 | 1014.7 |
| 20260508223524 | 21 | 0 | 0.0 | 3.2 | 0.00 | 0.28 | 0.20 | 52 | 1014.7 |
| 20260508223035 | 21 | 0 | 0.0 | 3.2 | 0.00 | 0.28 | 0.20 | 51 | 1014.7 |
| 20260508222520 | 21 | 0 | 0.0 | 4.8 | 0.03 | 0.28 | 0.20 | 51 | 1014.8 |
| 20260508222019 | 21 | 0 | 0.0 | 4.8 | 0.03 | 0.28 | 0.20 | 50 | 1014.9 |
| 20260508221535 | 22 | 0 | 0.0 | 3.2 | 0.03 | 0.28 | 0.20 | 50 | 1014.9 |
| 20260508221020 | 22 | 0 | 0.0 | 4.8 | 0.03 | 0.28 | 0.20 | 49 | 1014.7 |
| 20260508220521 | 22 | 102 | 0.0 | 4.8 | 0.03 | 0.28 | 0.20 | 49 | 1015.1 |
| 20260508220044 | 22 | 0 | 0.0 | 4.8 | 0.03 | 0.28 | 0.20 | 48 | 1014.9 |
| 20260508215524 | 22 | 0 | 0.0 | 1.6 | 0.03 | 0.28 | 0.20 | 49 | 1014.9 |
| 20260508215018 | 22 | 0 | 0.0 | 0.0 | 0.03 | 0.28 | 0.20 | 50 | 1014.9 |
| 20260508214543 | 22 | 0 | 0.0 | 0.0 | 0.03 | 0.28 | 0.20 | 49 | 1014.9 |
| 20260508214021 | 22 | 0 | 0.0 | 0.0 | 0.03 | 0.28 | 0.20 | 50 | 1014.7 |
| 20260508213518 | 22 | 0 | 0.0 | 0.0 | 0.03 | 0.28 | 0.20 | 49 | 1014.9 |
| 20260508213039 | 22 | 0 | 0.0 | 4.8 | 0.00 | 0.25 | 0.18 | 51 | 1014.9 |
| 20260508212518 | 22 | 0 | 0.0 | 4.8 | 0.00 | 0.25 | 0.18 | 46 | 1014.8 |
| 20260508212019 | 22 | 0 | 1.6 | 6.4 | 0.00 | 0.25 | 0.18 | 46 | 1014.7 |
| 20260508211538 | 23 | 98 | 1.6 | 6.4 | 0.00 | 0.25 | 0.18 | 45 | 1014.5 |
| 20260508211020 | 23 | 0 | 0.0 | 6.4 | 0.00 | 0.25 | 0.18 | 44 | 1014.7 |
| 20260508210521 | 23 | 98 | 0.0 | 4.8 | 0.00 | 0.25 | 0.18 | 44 | 1014.8 |
| 20260508210039 | 23 | 0 | 0.0 | 4.8 | 0.00 | 0.25 | 0.18 | 45 | 1014.8 |
| 20260508205518 | 23 | 0 | 0.0 | 1.6 | 0.00 | 0.28 | 0.18 | 45 | 1014.9 |
| 20260508205018 | 23 | 0 | 0.0 | 6.4 | 0.00 | 0.28 | 0.18 | 44 | 1015.1 |
| 20260508204539 | 23 | 0 | 1.6 | 6.4 | 0.00 | 0.28 | 0.18 | 43 | 1015.1 |
| 20260508204018 | 24 | 0 | 0.0 | 1.6 | 0.00 | 0.28 | 0.18 | 42 | 1015.3 |
| 20260508203518 | 24 | 0 | 0.0 | 3.2 | 0.00 | 0.28 | 0.18 | 45 | 1015.1 |
| 20260508203040 | 24 | 92 | 0.0 | 6.4 | 0.00 | 0.28 | 0.18 | 43 | 1015.1 |
| 20260508202523 | 24 | 0 | 0.0 | 6.4 | 0.00 | 0.28 | 0.18 | 41 | 1015.2 |
| 20260508202018 | 24 | 0 | 0.0 | 3.2 | 0.00 | 0.28 | 0.18 | 44 | 1015.2 |
| 20260508201536 | 24 | 0 | 0.0 | 4.8 | 0.00 | 0.28 | 0.18 | 46 | 1015.2 |
| 20260508201018 | 24 | 0 | 0.0 | 4.8 | 0.00 | 0.28 | 0.18 | 42 | 1015.1 |
| 20260508200518 | 24 | 263 | 0.0 | 3.2 | 0.00 | 0.28 | 0.18 | 41 | 1015.1 |
| 20260508200036 | 24 | 0 | 0.0 | 3.2 | 0.00 | 0.28 | 0.18 | 43 | 1015.1 |
| 20260508195517 | 24 | 0 | 0.0 | 6.4 | 0.00 | 0.30 | 0.18 | 41 | 1015.2 |
| 20260508195020 | 24 | 0 | 0.0 | 6.4 | 0.00 | 0.30 | 0.18 | 41 | 1015.3 |
| 20260508194538 | 24 | 0 | 0.0 | 4.8 | 0.03 | 0.30 | 0.18 | 41 | 1015.3 |
| 20260508194018 | 24 | 0 | 0.0 | 4.8 | 0.03 | 0.30 | 0.18 | 41 | 1015.3 |
| 20260508193521 | 24 | 0 | 0.0 | 8.0 | 0.03 | 0.30 | 0.18 | 42 | 1015.3 |
| 20260508193039 | 24 | 0 | 1.6 | 8.0 | 0.03 | 0.30 | 0.18 | 39 | 1015.4 |
| 20260508192518 | 25 | 0 | 0.0 | 4.8 | 0.03 | 0.30 | 0.18 | 44 | 1015.6 |
| 20260508192022 | 25 | 0 | 0.0 | 4.8 | 0.03 | 0.30 | 0.18 | 41 | 1015.8 |
| 20260508191545 | 25 | 0 | 0.0 | 4.8 | 0.03 | 0.30 | 0.18 | 42 | 1015.9 |
| 20260508191021 | 25 | 227 | 0.0 | 4.8 | 0.03 | 0.30 | 0.18 | 41 | 1016.1 |
| 20260508190521 | 25 | 0 | 0.0 | 3.2 | 0.03 | 0.30 | 0.18 | 44 | 1016.1 |
| 20260508190044 | 24 | 0 | 0.0 | 4.8 | 0.03 | 0.30 | 0.18 | 43 | 1016.2 |
| 20260508185518 | 24 | 0 | 0.0 | 4.8 | 0.03 | 0.30 | 0.18 | 45 | 1016.1 |
| 20260508185020 | 24 | 0 | 0.0 | 6.4 | 0.03 | 0.30 | 0.18 | 41 | 1016.2 |
| 20260508184539 | 24 | 0 | 0.0 | 6.4 | 0.00 | 0.28 | 0.15 | 41 | 1016.2 |
| 20260508184018 | 25 | 0 | 0.0 | 4.8 | 0.00 | 0.28 | 0.15 | 42 | 1016.2 |
| 20260508183520 | 25 | 0 | 0.0 | 4.8 | 0.00 | 0.28 | 0.15 | 46 | 1016.3 |
| 20260508183036 | 24 | 0 | 1.6 | 4.8 | 0.00 | 0.28 | 0.15 | 43 | 1016.6 |
| 20260508182520 | 24 | 0 | 0.0 | 6.4 | 0.00 | 0.28 | 0.15 | 46 | 1016.5 |
| 20260508182021 | 24 | 234 | 1.6 | 6.4 | 0.00 | 0.28 | 0.15 | 43 | 1016.5 |
| 20260508181543 | 24 | 132 | 0.0 | 4.8 | 0.00 | 0.28 | 0.15 | 45 | 1016.7 |
| 20260508181021 | 23 | 0 | 0.0 | 4.8 | 0.00 | 0.28 | 0.15 | 47 | 1016.6 |
| 20260508180520 | 23 | 0 | 0.0 | 6.4 | 0.00 | 0.28 | 0.15 | 46 | 1016.8 |
| 20260508180038 | 23 | 279 | 1.6 | 6.4 | 0.00 | 0.28 | 0.15 | 44 | 1017.0 |
| 20260508175522 | 23 | 0 | 0.0 | 3.2 | 0.00 | 0.30 | 0.15 | 44 | 1016.8 |
| 20260508175021 | 23 | 0 | 0.0 | 3.2 | 0.03 | 0.30 | 0.15 | 45 | 1017.0 |
| 20260508174541 | 23 | 169 | 0.0 | 3.2 | 0.03 | 0.30 | 0.15 | 47 | 1017.1 |
| 20260508174018 | 23 | 87 | 0.0 | 6.4 | 0.03 | 0.30 | 0.15 | 44 | 1017.0 |
| 20260508173522 | 23 | 86 | 0.0 | 6.4 | 0.03 | 0.30 | 0.15 | 46 | 1017.2 |
| 20260508173037 | 23 | 85 | 1.6 | 6.4 | 0.03 | 0.30 | 0.15 | 45 | 1017.1 |
| 20260508172523 | 22 | 0 | 0.0 | 6.4 | 0.03 | 0.30 | 0.15 | 46 | 1017.1 |
| 20260508172018 | 22 | 99 | 0.0 | 6.4 | 0.03 | 0.30 | 0.15 | 48 | 1017.3 |
| 20260508171543 | 22 | 110 | 1.6 | 4.8 | 0.03 | 0.30 | 0.15 | 48 | 1017.4 |
| 20260508171020 | 22 | 0 | 0.0 | 1.6 | 0.03 | 0.30 | 0.15 | 50 | 1017.5 |
| 20260508170519 | 22 | 0 | 0.0 | 1.6 | 0.03 | 0.30 | 0.15 | 47 | 1017.6 |
| 20260508170036 | 22 | 76 | 0.0 | 3.2 | 0.03 | 0.30 | 0.15 | 47 | 1017.7 |
| 20260508165518 | 22 | 0 | 0.0 | 3.2 | 0.03 | 0.33 | 0.15 | 46 | 1017.8 |
| 20260508165019 | 22 | 0 | 0.0 | 3.2 | 0.00 | 0.30 | 0.13 | 46 | 1017.7 |
| 20260508164536 | 22 | 0 | 0.0 | 3.2 | 0.00 | 0.30 | 0.13 | 47 | 1018.0 |
| 20260508164022 | 22 | 0 | 0.0 | 3.2 | 0.00 | 0.30 | 0.13 | 48 | 1018.1 |
| 20260508163518 | 22 | 0 | 0.0 | 3.2 | 0.00 | 0.30 | 0.13 | 50 | 1018.0 |
| 20260508163053 | 22 | 0 | 0.0 | 4.8 | 0.00 | 0.30 | 0.13 | 48 | 1018.1 |
| 20260508162523 | 22 | 0 | 0.0 | 4.8 | 0.00 | 0.30 | 0.13 | 50 | 1018.2 |
| 20260508162021 | 22 | 0 | 0.0 | 4.8 | 0.00 | 0.30 | 0.13 | 51 | 1018.4 |
| 20260508161550 | 21 | 0 | 0.0 | 4.8 | 0.00 | 0.30 | 0.13 | 50 | 1018.4 |
| 20260508161019 | 21 | 191 | 0.0 | 3.2 | 0.00 | 0.30 | 0.13 | 53 | 1018.5 |
| 20260508160525 | 21 | 0 | 0.0 | 3.2 | 0.00 | 0.30 | 0.13 | 52 | 1018.5 |
| 20260508160036 | 20 | 0 | 0.0 | 3.2 | 0.00 | 0.30 | 0.13 | 52 | 1018.6 |
| 20260508155521 | 20 | 0 | 0.0 | 4.8 | 0.00 | 0.30 | 0.13 | 52 | 1018.7 |
| 20260508155019 | 20 | 351 | 0.0 | 4.8 | 0.00 | 0.30 | 0.13 | 56 | 1018.7 |
| 20260508154535 | 20 | 87 | 0.0 | 4.8 | 0.00 | 0.30 | 0.13 | 51 | 1018.8 |
| 20260508154024 | 20 | 0 | 0.0 | 4.8 | 0.00 | 0.30 | 0.13 | 54 | 1018.8 |
| 20260508153519 | 20 | 0 | 0.0 | 4.8 | 0.00 | 0.30 | 0.13 | 52 | 1018.8 |
| 20260508153052 | 20 | 0 | 0.0 | 4.8 | 0.00 | 0.30 | 0.13 | 54 | 1018.8 |
| 20260508152521 | 20 | 0 | 0.0 | 3.2 | 0.00 | 0.30 | 0.13 | 54 | 1018.7 |
| 20260508152020 | 20 | 0 | 0.0 | 4.8 | 0.00 | 0.30 | 0.13 | 54 | 1018.7 |
| 20260508151539 | 20 | 101 | 0.0 | 4.8 | 0.00 | 0.30 | 0.13 | 53 | 1018.6 |
| 20260508151023 | 20 | 0 | 0.0 | 4.8 | 0.00 | 0.30 | 0.13 | 54 | 1018.7 |
| 20260508150521 | 20 | 128 | 0.0 | 6.4 | 0.00 | 0.30 | 0.13 | 53 | 1018.7 |
| 20260508150032 | 19 | 0 | 0.0 | 6.4 | 0.00 | 0.30 | 0.13 | 55 | 1018.7 |
| 20260508145518 | 19 | 103 | 0.0 | 6.4 | 0.00 | 0.33 | 0.13 | 50 | 1018.8 |
| 20260508145021 | 19 | 0 | 0.0 | 3.2 | 0.00 | 0.33 | 0.13 | 52 | 1018.8 |
| 20260508144537 | 20 | 0 | 0.0 | 3.2 | 0.03 | 0.33 | 0.13 | 51 | 1018.8 |
| 20260508144021 | 20 | 105 | 0.0 | 4.8 | 0.03 | 0.33 | 0.13 | 54 | 1018.7 |
| 20260508143520 | 20 | 97 | 1.6 | 6.4 | 0.03 | 0.33 | 0.13 | 50 | 1018.7 |
| 20260508143056 | 20 | 0 | 0.0 | 6.4 | 0.03 | 0.33 | 0.13 | 52 | 1018.7 |
| 20260508142521 | 20 | 0 | 0.0 | 9.7 | 0.03 | 0.33 | 0.13 | 52 | 1018.6 |
| 20260508142023 | 20 | 84 | 1.6 | 9.7 | 0.03 | 0.33 | 0.13 | 50 | 1018.6 |
| 20260508141539 | 21 | 331 | 0.0 | 8.0 | 0.03 | 0.33 | 0.13 | 52 | 1018.5 |
| 20260508141021 | 21 | 84 | 0.0 | 8.0 | 0.03 | 0.33 | 0.13 | 51 | 1018.5 |
| 20260508140521 | 21 | 122 | 0.0 | 11.3 | 0.03 | 0.33 | 0.13 | 53 | 1018.5 |
| 20260508140034 | 20 | 0 | 0.0 | 11.3 | 0.03 | 0.33 | 0.13 | 55 | 1018.7 |
| 20260508135522 | 20 | 0 | 1.6 | 11.3 | 0.03 | 0.38 | 0.13 | 53 | 1018.6 |
| 20260508135022 | 20 | 90 | 0.0 | 4.8 | 0.00 | 0.36 | 0.10 | 59 | 1018.6 |
| 20260508134538 | 20 | 0 | 0.0 | 6.4 | 0.00 | 0.36 | 0.10 | 58 | 1018.5 |
| 20260508134020 | 19 | 0 | 1.6 | 9.7 | 0.00 | 0.36 | 0.10 | 59 | 1018.5 |
| 20260508133520 | 19 | 0 | 0.0 | 9.7 | 0.00 | 0.36 | 0.10 | 61 | 1018.6 |
| 20260508133037 | 19 | 0 | 0.0 | 9.7 | 0.00 | 0.36 | 0.10 | 60 | 1018.5 |
| 20260508132520 | 18 | 0 | 0.0 | 6.4 | 0.00 | 0.36 | 0.10 | 64 | 1018.4 |
| 20260508132020 | 18 | 117 | 0.0 | 6.4 | 0.00 | 0.36 | 0.10 | 66 | 1018.4 |
| 20260508131537 | 17 | 0 | 0.0 | 3.2 | 0.00 | 0.36 | 0.10 | 69 | 1018.3 |
| 20260508131021 | 17 | 0 | 0.0 | 4.8 | 0.00 | 0.36 | 0.10 | 75 | 1018.2 |
| 20260508130520 | 16 | 0 | 0.0 | 4.8 | 0.00 | 0.36 | 0.10 | 74 | 1018.1 |
| 20260508130035 | 16 | 0 | 0.0 | 8.0 | 0.03 | 0.36 | 0.10 | 78 | 1018.2 |
| 20260508125521 | 15 | 0 | 0.0 | 8.0 | 0.03 | 0.38 | 0.10 | 81 | 1018.0 |
| 20260508125022 | 15 | 0 | 0.0 | 6.4 | 0.03 | 0.38 | 0.10 | 84 | 1017.9 |
| 20260508124539 | 14 | 0 | 0.0 | 6.4 | 0.03 | 0.38 | 0.10 | 89 | 1017.9 |
| 20260508124020 | 13 | 360 | 0.0 | 6.4 | 0.03 | 0.38 | 0.10 | 92 | 1017.8 |
| 20260508123521 | 13 | 0 | 0.0 | 9.7 | 0.03 | 0.38 | 0.10 | 92 | 1017.9 |
| 20260508123042 | 13 | 0 | 0.0 | 9.7 | 0.03 | 0.38 | 0.10 | 93 | 1017.8 |
| 20260508122520 | 13 | 128 | 0.0 | 4.8 | 0.03 | 0.38 | 0.10 | 94 | 1017.8 |
| 20260508122020 | 13 | 0 | 0.0 | 3.2 | 0.03 | 0.38 | 0.10 | 94 | 1017.8 |
| 20260508121538 | 13 | 0 | 0.0 | 3.2 | 0.03 | 0.38 | 0.10 | 93 | 1017.8 |
| 20260508121019 | 13 | 0 | 0.0 | 3.2 | 0.03 | 0.38 | 0.10 | 93 | 1017.6 |
| 20260508120521 | 13 | 0 | 0.0 | 3.2 | 0.03 | 0.38 | 0.10 | 93 | 1017.6 |
| 20260508120036 | 12 | 0 | 0.0 | 1.6 | 0.00 | 0.36 | 0.08 | 93 | 1017.6 |
| 20260508115523 | 12 | 0 | 0.0 | 0.0 | 0.00 | 0.41 | 0.08 | 93 | 1017.5 |
| 20260508115022 | 12 | 0 | 0.0 | 0.0 | 0.00 | 0.41 | 0.08 | 93 | 1017.5 |
| 20260508114536 | 12 | 0 | 0.0 | 0.0 | 0.00 | 0.41 | 0.08 | 92 | 1017.4 |
| 20260508114020 | 12 | 0 | 0.0 | 0.0 | 0.00 | 0.41 | 0.08 | 92 | 1017.3 |
| 20260508113523 | 12 | 0 | 0.0 | 0.0 | 0.00 | 0.41 | 0.08 | 92 | 1017.1 |
| 20260508113040 | 12 | 0 | 0.0 | 0.0 | 0.00 | 0.41 | 0.08 | 91 | 1016.9 |
| 20260508112526 | 12 | 0 | 0.0 | 0.0 | 0.00 | 0.41 | 0.08 | 91 | 1016.7 |
| 20260508112022 | 12 | 0 | 0.0 | 0.0 | 0.00 | 0.41 | 0.08 | 91 | 1016.8 |
| 20260508111541 | 12 | 0 | 0.0 | 0.0 | 0.00 | 0.41 | 0.08 | 90 | 1016.8 |
| 20260508111020 | 12 | 0 | 0.0 | 0.0 | 0.00 | 0.41 | 0.08 | 90 | 1016.7 |
| 20260508110519 | 12 | 0 | 0.0 | 0.0 | 0.00 | 0.41 | 0.08 | 90 | 1016.6 |
| 20260508110038 | 12 | 0 | 0.0 | 0.0 | 0.00 | 0.41 | 0.08 | 90 | 1016.6 |
| 20260508105519 | 12 | 0 | 0.0 | 0.0 | 0.00 | 0.41 | 0.08 | 90 | 1016.6 |
| 20260508105021 | 12 | 0 | 0.0 | 0.0 | 0.03 | 0.41 | 0.08 | 89 | 1016.4 |
| 20260508104537 | 12 | 0 | 0.0 | 0.0 | 0.03 | 0.41 | 0.08 | 89 | 1016.2 |
| 20260508104019 | 12 | 0 | 0.0 | 0.0 | 0.03 | 0.41 | 0.08 | 89 | 1016.1 |
| 20260508103519 | 12 | 0 | 0.0 | 0.0 | 0.03 | 0.41 | 0.08 | 89 | 1016.0 |
| 20260508103044 | 12 | 0 | 0.0 | 0.0 | 0.03 | 0.41 | 0.08 | 89 | 1015.9 |
| 20260508102519 | 12 | 0 | 0.0 | 0.0 | 0.03 | 0.41 | 0.08 | 89 | 1016.0 |
| 20260508102026 | 12 | 0 | 0.0 | 0.0 | 0.03 | 0.41 | 0.08 | 89 | 1015.9 |
| 20260508101536 | 12 | 0 | 0.0 | 0.0 | 0.03 | 0.41 | 0.08 | 89 | 1015.7 |
| 20260508101022 | 12 | 0 | 0.0 | 0.0 | 0.03 | 0.41 | 0.08 | 89 | 1015.7 |
| 20260508100520 | 12 | 0 | 0.0 | 0.0 | 0.03 | 0.41 | 0.08 | 89 | 1015.7 |
| 20260508100053 | 12 | 0 | 0.0 | 0.0 | 0.03 | 0.41 | 0.08 | 89 | 1015.6 |
| 20260508095525 | 12 | 0 | 0.0 | 0.0 | 0.03 | 0.43 | 0.08 | 88 | 1015.6 |
| 20260508095023 | 12 | 0 | 0.0 | 0.0 | 0.00 | 0.41 | 0.05 | 88 | 1015.5 |
| 20260508094536 | 12 | 0 | 0.0 | 0.0 | 0.00 | 0.41 | 0.05 | 88 | 1015.5 |
| 20260508094021 | 13 | 0 | 0.0 | 0.0 | 0.00 | 0.41 | 0.05 | 88 | 1015.5 |
| 20260508093522 | 13 | 0 | 0.0 | 0.0 | 0.00 | 0.41 | 0.05 | 88 | 1015.5 |
| 20260508093039 | 13 | 0 | 0.0 | 0.0 | 0.00 | 0.41 | 0.05 | 88 | 1015.4 |
| 20260508092520 | 13 | 0 | 0.0 | 0.0 | 0.00 | 0.41 | 0.05 | 88 | 1015.2 |
| 20260508092019 | 13 | 0 | 0.0 | 0.0 | 0.00 | 0.41 | 0.05 | 88 | 1015.2 |
| 20260508091544 | 13 | 0 | 0.0 | 0.0 | 0.00 | 0.41 | 0.05 | 88 | 1015.3 |
| 20260508091021 | 13 | 0 | 0.0 | 0.0 | 0.00 | 0.41 | 0.05 | 88 | 1015.3 |
| 20260508090519 | 13 | 0 | 0.0 | 0.0 | 0.03 | 0.41 | 0.05 | 88 | 1015.4 |
| 20260508090041 | 13 | 0 | 0.0 | 0.0 | 0.03 | 0.41 | 0.05 | 88 | 1015.3 |
| 20260508085520 | 13 | 0 | 0.0 | 0.0 | 0.03 | 0.43 | 0.05 | 88 | 1015.3 |
| 20260508085022 | 13 | 0 | 0.0 | 0.0 | 0.03 | 0.43 | 0.05 | 88 | 1015.2 |
| 20260508084535 | 13 | 0 | 0.0 | 0.0 | 0.03 | 0.43 | 0.05 | 88 | 1015.3 |
| 20260508084023 | 13 | 0 | 0.0 | 0.0 | 0.03 | 0.43 | 0.05 | 88 | 1015.3 |
| 20260508083523 | 13 | 0 | 0.0 | 0.0 | 0.03 | 0.43 | 0.05 | 88 | 1015.3 |
| 20260508083034 | 13 | 0 | 0.0 | 0.0 | 0.03 | 0.43 | 0.05 | 87 | 1015.3 |
| 20260508082521 | 13 | 0 | 0.0 | 0.0 | 0.03 | 0.43 | 0.05 | 87 | 1015.2 |
| 20260508082020 | 13 | 0 | 0.0 | 0.0 | 0.03 | 0.43 | 0.05 | 87 | 1015.1 |
| 20260508081553 | 13 | 0 | 0.0 | 0.0 | 0.03 | 0.43 | 0.05 | 87 | 1015.1 |
| 20260508081020 | 13 | 0 | 0.0 | 0.0 | 0.03 | 0.43 | 0.05 | 87 | 1015.0 |
| 20260508080519 | 13 | 0 | 0.0 | 0.0 | 0.00 | 0.41 | 0.03 | 87 | 1015.0 |
| 20260508080040 | 14 | 0 | 0.0 | 0.0 | 0.00 | 0.41 | 0.03 | 87 | 1014.9 |
| 20260508075521 | 14 | 0 | 0.0 | 0.0 | 0.00 | 0.41 | 0.03 | 87 | 1014.9 |
| 20260508075020 | 14 | 0 | 0.0 | 0.0 | 0.00 | 0.41 | 0.03 | 86 | 1014.8 |
| 20260508074537 | 14 | 0 | 0.0 | 0.0 | 0.00 | 0.41 | 0.03 | 86 | 1014.9 |
| 20260508074019 | 14 | 0 | 0.0 | 0.0 | 0.00 | 0.41 | 0.03 | 87 | 1014.9 |
| 20260508073521 | 14 | 0 | 0.0 | 0.0 | 0.00 | 0.41 | 0.03 | 86 | 1014.7 |
| 20260508073043 | 14 | 0 | 0.0 | 0.0 | 0.00 | 0.41 | 0.03 | 86 | 1014.7 |
| 20260508072519 | 14 | 0 | 0.0 | 0.0 | 0.00 | 0.41 | 0.03 | 86 | 1014.6 |
| 20260508072024 | 14 | 0 | 0.0 | 0.0 | 0.00 | 0.41 | 0.03 | 86 | 1014.7 |
| 20260508071539 | 14 | 0 | 0.0 | 0.0 | 0.00 | 0.41 | 0.03 | 85 | 1014.6 |
| 20260508071019 | 14 | 0 | 0.0 | 0.0 | 0.00 | 0.41 | 0.03 | 85 | 1014.5 |
| 20260508070523 | 14 | 0 | 0.0 | 0.0 | 0.00 | 0.41 | 0.03 | 85 | 1014.6 |
| 20260508070036 | 15 | 0 | 0.0 | 0.0 | 0.00 | 0.41 | 0.03 | 84 | 1014.5 |
| 20260508065522 | 15 | 0 | 0.0 | 0.0 | 0.00 | 0.43 | 0.03 | 84 | 1014.4 |
| 20260508065020 | 15 | 0 | 0.0 | 0.0 | 0.00 | 0.43 | 0.03 | 84 | 1014.3 |
| 20260508064540 | 15 | 0 | 0.0 | 0.0 | 0.00 | 0.43 | 0.03 | 84 | 1014.3 |
| 20260508064022 | 15 | 0 | 0.0 | 0.0 | 0.00 | 0.43 | 0.03 | 84 | 1014.5 |
| 20260508063519 | 15 | 0 | 0.0 | 0.0 | 0.00 | 0.43 | 0.03 | 84 | 1014.5 |
| 20260508063037 | 15 | 0 | 0.0 | 0.0 | 0.00 | 0.43 | 0.03 | 84 | 1014.6 |
| 20260508062519 | 15 | 0 | 0.0 | 0.0 | 0.00 | 0.43 | 0.03 | 84 | 1014.6 |
| 20260508062020 | 15 | 0 | 0.0 | 0.0 | 0.00 | 0.43 | 0.03 | 83 | 1014.6 |
| 20260508061536 | 15 | 0 | 0.0 | 0.0 | 0.00 | 0.43 | 0.03 | 84 | 1014.7 |
| 20260508061024 | 15 | 0 | 0.0 | 0.0 | 0.00 | 0.43 | 0.03 | 83 | 1014.8 |
| 20260508060520 | 15 | 0 | 0.0 | 0.0 | 0.00 | 0.43 | 0.03 | 83 | 1014.8 |
| 20260508060055 | 15 | 0 | 0.0 | 0.0 | 0.00 | 0.43 | 0.03 | 83 | 1014.8 |
| 20260508055522 | 15 | 0 | 0.0 | 0.0 | 0.00 | 0.46 | 0.03 | 83 | 1014.7 |
| 20260508055022 | 15 | 0 | 0.0 | 0.0 | 0.00 | 0.46 | 0.03 | 83 | 1014.7 |
| 20260508054609 | 16 | 0 | 0.0 | 0.0 | 0.00 | 0.46 | 0.03 | 83 | 1014.7 |
| 20260508054022 | 16 | 0 | 0.0 | 0.0 | 0.00 | 0.46 | 0.03 | 83 | 1014.8 |
| 20260508053521 | 16 | 0 | 0.0 | 0.0 | 0.00 | 0.46 | 0.03 | 82 | 1014.5 |
| 20260508053046 | 16 | 0 | 0.0 | 1.6 | 0.00 | 0.46 | 0.03 | 82 | 1015.0 |
| 20260508052520 | 16 | 0 | 0.0 | 1.6 | 0.00 | 0.46 | 0.03 | 81 | 1014.8 |
| 20260508052022 | 16 | 0 | 0.0 | 1.6 | 0.00 | 0.46 | 0.03 | 80 | 1014.6 |
| 20260508051541 | 16 | 0 | 0.0 | 0.0 | 0.00 | 0.46 | 0.03 | 80 | 1014.7 |
| 20260508051023 | 16 | 0 | 0.0 | 0.0 | 0.00 | 0.46 | 0.03 | 80 | 1014.7 |
| 20260508050521 | 16 | 0 | 0.0 | 0.0 | 0.03 | 0.46 | 0.03 | 79 | 1014.6 |
| 20260508050036 | 16 | 0 | 0.0 | 0.0 | 0.03 | 0.46 | 0.03 | 80 | 1014.6 |
| 20260508045521 | 16 | 0 | 0.0 | 0.0 | 0.03 | 0.48 | 0.03 | 79 | 1014.6 |
| 20260508045021 | 16 | 0 | 0.0 | 0.0 | 0.03 | 0.48 | 0.03 | 79 | 1014.5 |
| 20260508044535 | 16 | 0 | 0.0 | 6.4 | 0.03 | 0.48 | 0.03 | 79 | 1014.4 |
| 20260508044021 | 16 | 0 | 0.0 | 6.4 | 0.03 | 0.48 | 0.03 | 79 | 1014.3 |
| 20260508043520 | 16 | 0 | 0.0 | 9.7 | 0.03 | 0.48 | 0.03 | 78 | 1014.3 |
| 20260508043037 | 17 | 32 | 0.0 | 9.7 | 0.03 | 0.48 | 0.03 | 78 | 1014.2 |
| 20260508042522 | 17 | 0 | 0.0 | 9.7 | 0.03 | 0.48 | 0.03 | 78 | 1014.2 |
| 20260508042019 | 17 | 0 | 0.0 | 9.7 | 0.03 | 0.48 | 0.03 | 77 | 1014.1 |
| 20260508041537 | 17 | 0 | 0.0 | 9.7 | 0.03 | 0.48 | 0.03 | 77 | 1014.1 |
| 20260508041022 | 17 | 0 | 1.6 | 9.7 | 0.00 | 0.46 | 0.00 | 76 | 1014.0 |
| 20260508040519 | 17 | 28 | 0.0 | 6.4 | 0.00 | 0.46 | 0.00 | 76 | 1014.1 |
| 20260508040037 | 17 | 109 | 0.0 | 6.4 | 0.00 | 0.46 | 0.00 | 76 | 1014.1 |
| 20260508035522 | 17 | 0 | 0.0 | 12.9 | 0.00 | 0.58 | 0.46 | 75 | 1014.0 |
| 20260508035022 | 18 | 0 | 0.0 | 12.9 | 0.00 | 0.58 | 0.46 | 74 | 1014.0 |
| 20260508034546 | 18 | 49 | 0.0 | 8.0 | 0.00 | 0.58 | 0.46 | 74 | 1014.0 |
| 20260508034021 | 18 | 340 | 0.0 | 8.0 | 0.00 | 0.58 | 0.46 | 73 | 1014.0 |
| 20260508033520 | 18 | 0 | 1.6 | 8.0 | 0.00 | 0.58 | 0.46 | 73 | 1013.8 |
| 20260508033036 | 18 | 0 | 0.0 | 6.4 | 0.00 | 0.58 | 0.46 | 75 | 1013.8 |
| 20260508032522 | 19 | 98 | 0.0 | 8.0 | 0.00 | 0.58 | 0.46 | 77 | 1013.7 |
| 20260508032021 | 20 | 0 | 0.0 | 9.7 | 0.00 | 0.58 | 0.46 | 77 | 1013.7 |
| 20260508031536 | 20 | 109 | 1.6 | 16.1 | 0.00 | 0.58 | 0.46 | 77 | 1013.4 |
| 20260508031019 | 20 | 0 | 1.6 | 16.1 | 0.03 | 0.58 | 0.46 | 77 | 1013.5 |
| 20260508030519 | 20 | 0 | 1.6 | 16.1 | 0.03 | 0.58 | 0.46 | 77 | 1013.3 |
| 20260508030040 | 20 | 42 | 0.0 | 17.7 | 0.03 | 0.58 | 0.46 | 78 | 1013.3 |
| 20260508025519 | 21 | 101 | 0.0 | 17.7 | 0.03 | 0.66 | 0.46 | 78 | 1013.1 |
| 20260508025019 | 21 | 74 | 0.0 | 17.7 | 0.03 | 0.66 | 0.46 | 79 | 1013.2 |
| 20260508024542 | 21 | 0 | 0.0 | 6.4 | 0.03 | 0.66 | 0.46 | 78 | 1012.9 |
| 20260508024019 | 21 | 0 | 0.0 | 6.4 | 0.03 | 0.66 | 0.46 | 78 | 1012.7 |
| 20260508023521 | 21 | 0 | 0.0 | 0.0 | 0.03 | 0.66 | 0.46 | 78 | 1012.7 |
| 20260508023036 | 21 | 0 | 0.0 | 0.0 | 0.03 | 0.66 | 0.46 | 77 | 1012.4 |
| 20260508022524 | 21 | 0 | 0.0 | 0.0 | 0.03 | 0.66 | 0.46 | 77 | 1012.2 |
| 20260508022019 | 21 | 0 | 0.0 | 4.8 | 0.03 | 0.66 | 0.46 | 77 | 1012.2 |
| 20260508021532 | 21 | 0 | 0.0 | 6.4 | 0.00 | 0.64 | 0.43 | 76 | 1012.0 |
| 20260508021024 | 21 | 0 | 0.0 | 6.4 | 0.00 | 0.64 | 0.43 | 76 | 1011.9 |
| 20260508020520 | 21 | 29 | 0.0 | 6.4 | 0.00 | 0.64 | 0.43 | 76 | 1011.8 |
| 20260508020034 | 21 | 0 | 0.0 | 8.0 | 0.00 | 0.64 | 0.43 | 76 | 1011.9 |
| 20260508015519 | 21 | 0 | 1.6 | 8.0 | 0.00 | 0.64 | 0.43 | 76 | 1011.6 |